Other Public Products
Issued by NWS Grand Forks, ND

Home | Current Version | Previous Version | Graphics & Text | Print | Product List | Glossary On
Versions: 1 2 3 4 5 6 7 8 9 10 11 12 13 14 15 16 17 18 19 20 21 22 23 24 25 26 27 28 29 30 31 32 33 34 35 36 37 38 39 40 41 42 43 44 45 46 47 48 49 50
000
FPUS83 KFGF 201331
OPUFGF
PRAIRIE TO PINES WEATHER ROUNDUP
NATIONAL WEATHER SERVICE EASTERN NORTH DAKOTA/GRAND FORKS ND
800 AM CDT WED AUG 20 2014

 **SATELLITE DATA USED TO AUGMENT SKY COVER AT AUTOMATED STATIONS**
 *****  WEATHER ACROSS EASTERN NORTH DAKOTA  *****

CITY           SKY/WX    TMP DP  RH WIND       PRES   REMARKS
GRAND FORKS    PTSUNNY   65  62  90 SE6       29.78R
GRAND FORKS AF MOSUNNY   64  64 100 SE6       29.79R
GRAND CITY NWS   N/A     55 N/A N/A SE6         N/A
BUXTON           N/A     64  64  99 SE7         N/A
DEVILS LAKE    MOSUNNY   70  61  73 SE9       29.74S
FARGO          SUNNY     69  63  81 SE8       29.79R
WAHPETON ARPT  SUNNY     66  61  82 SE8       29.81S
$$

 *****  WEATHER ACROSS CENTRAL AND WESTERN NORTH DAKOTA  *****

CITY           SKY/WX    TMP DP  RH WIND       PRES   REMARKS
JAMESTOWN      SUNNY     66  62  87 SE8       29.76R
BISMARCK       MOSUNNY   66  62  87 E8        29.72S
MINOT          MOSUNNY   64  61  90 SE8       29.67S
MINOT AFB      MOSUNNY   65  65  99 SE9       29.66S
GARRISON         N/A     66  63  90 SE7       29.69R
WILLISTON      MOCLDY    72  61  68 S3        29.63R
DICKINSON      MOCLDY    68  62  81 S9        29.67R
HETTINGER      CLOUDY    68  62  81 SE7       29.71R
$$

 *****  OTHER OBSERVATIONS NORTHEAST NORTH DAKOTA  *****

CITY           SKY/WX    TMP DP  RH WIND       PRES   REMARKS
WALHALLA         N/A     64  64 100 SE7         N/A
LANGDON        FAIR      66  64  94 SE6       29.78S
CAVALIER       FAIR      64  63  94 SE5       29.78S
GRAFTON        FAIR      64  64 100 SE7       29.78S
CANDO          FAIR      66  66 100 SE7       29.75S
FORT TOTTEN    NOT AVBL
ROLLA          FAIR      64  64 100 SE9       29.75F
RUGBY          NOT AVBL
 ***** THE ABOVE OBSERVATIONS ARE NON NWS ARE NOT QUALITY
        CONTROLLED AND MAY MIS-REPORT RAIN FOR SNOW...
$$

 *****  OTHER OBSERVATIONS SOUTHEAST NORTH DAKOTA *****

CITY           SKY/WX    TMP DP  RH WIND       PRES   REMARKS
COOPERSTOWN    NOT AVBL
VALLEY CITY    FAIR      66  66 100 SE8       29.78F
OAKES          NOT AVBL
GWINNER        SUNNY     66  66 100 E8        29.78S
SHEYENNE NWR     N/A     65  64  95 E5        29.95S
BUFFALO          N/A     65  62  91 E6          N/A
WYNDMERE       NOT AVBL
 ***** THE ABOVE OBSERVATIONS ARE NON NWS ARE NOT QUALITY
       CONTROLLED AND MAY MIS-REPORT RAIN FOR SNOW...
$$

  *****  WEATHER ACROSS NORTHERN MINNESOTA  *****

CITY           SKY/WX    TMP DP  RH WIND       PRES   REMARKS
FLAG ISLAND    SUNNY     68  63  83 S9        29.84F
WARROAD        SUNNY     64  61  88 SE5       29.85S
ROSEAU         SUNNY     66  61  82 S6        29.84R
HALLOCK        SUNNY     66  63  88 SE7       29.79S
THF RVR FALLS  SUNNY     64  63  94 SE8       29.83S
HALSTAD          N/A     67  64  91 SE6         N/A
FOSSTON        SUNNY     64  61  88 CALM      29.84S
BAUDETTE       PTSUNNY   62  59  90 CALM      29.86S
WASKISH        SUNNY     63  63 100 CALM      29.87R
CROOKSTON      SUNNY     66  64  94 SE5       29.81S
$$
  *****  WEATHER ACROSS CENTRAL AND WEST MINNESOTA  *****

CITY           SKY/WX    TMP DP  RH WIND       PRES   REMARKS
BEMIDJI        SUNNY     64  62  93 SE7       29.86S
PARK RAPIDS    CLOUDY    62  62 100 S8        29.87R
WADENA         FOG       61  61 100 SE7       29.86R VSB 1/2
DETROIT LAKES  SUNNY     64  63  94 SE9       29.85R
MOORHEAD       SUNNY     70  68  94 SE6       29.81R
FERGUS FALLS   SUNNY     70  64  83 SE8       29.83R
ELBOW LAKE     FAIR      67  63  86 SE8       29.83F
MORRIS MN      MOSUNNY   66  64  94 E8        29.82S
STAPLES        FOG       61  61 100 CALM      29.86S VSB 1/2
WHEATON        SUNNY     63  63 100 E9        29.81F FOG
$$
  *****  WEATHER ELSEWHERE ACROSS MINNESOTA  *****

CITY           SKY/WX    TMP DP  RH WIND       PRES   REMARKS
DULUTH         CLOUDY    62  59  90 CALM      29.88R
INTRNTL FALLS  MOSUNNY   60  59  96 SE3       29.88F
ELY            CLOUDY    63  61  94 W3        29.90R
CLOQUET        CLOUDY    61  59  94 CALM      29.88S
BRAINERD       SUNNY     61  60  97 CALM      29.86S
HIBBING        CLOUDY    60  57  89 CALM      29.90R
ALEXANDRIA     CLOUDY    64  63  96 SE8       29.87S FOG
SAINT CLOUD    CLOUDY    64  62  93 S7        29.87R
MINNEAPOLIS    MOSUNNY   68  64  87 E8        29.86R
$$

  *****  WEATHER ACROSS SOUTH DAKOTA  *****

CITY           SKY/WX    TMP DP  RH WIND       PRES   REMARKS
SIOUX FALLS    CLOUDY    69  66  90 SE9       29.80F
BROOKINGS      NOT AVBL
WATERTOWN      PTSUNNY   66  61  84 SE9       29.79F
HURON          MOSUNNY   70  64  81 SE8       29.74R
SISSETON         N/A     65  65 100 S3        29.79R
ABERDEEN       SUNNY     66  63  90 SE5       29.76R
MITCHELL       PTSUNNY   69  66  90 SE14      29.74F
PIERRE         PTSUNNY   67  61  81 SE9       29.69R
MOBRIDGE       PTSUNNY   66  63  90 CALM      29.69F
RAPID CITY     CLOUDY    65  59  81 NE5       29.74R
$$

  *****  SOME WEATHER IN NEARBY STATES *****

CITY           SKY/WX    TMP DP  RH WIND       PRES   REMARKS
GLASGOW MT     PTCLDY    63  54  72 W8        29.64R
GREAT FALLS MT CLOUDY    55  50  83 SW6       29.83R
CHEYENNE WY    CLOUDY    63  49  60 W9        29.97R
SCOTTSBLUFF NE MOCLDY    64  60  87 CALM      29.83S
OMAHA NE       CLOUDY    74  67  78 NE7       29.82R
DES MOINES IA  TSTM      69  67  93 NW9       29.92R FOG
DAVENPORT IA   SUNNY     68  65  90 W3        29.89R
CHICAGO IL     MOSUNNY   71  62  73 NW5       29.86R
EAU CLAIRE WI  CLOUDY    61  61 100 NE3       29.88R FOG
LA CROSSE WI   CLOUDY    67  65  93 CALM      29.87R FOG
$$

  *****  SOME NATIONAL WEATHER *****

CITY           SKY/WX    TMP DP  RH WIND       PRES   REMARKS
LA GUARDIA NY  PTSUNNY   74  66  76 NE8       29.99R
RALEIGH NC     PTSUNNY   75  70  84 E3        29.99R HAZE
ATLANTA GA     PTSUNNY   77  71  82 W7        30.06R
NEW ORLEANS LA PTSUNNY   83  76  79 CALM      30.05R HX  91
OKLAHOMA CITY  MOSUNNY   76  68  76 S12       29.91R
ALBUQUERQUE NM CLOUDY    67  52  58 S6        30.09R
SALT LAKE CITY CLOUDY    62  57  83 SE14      29.97R
LOS ANGELES CA MOCLDY    69  57  65 E3        29.90R
BOISE ID       CLEAR     65  48  54 SE6       29.84R
SEATTLE WA     CLOUDY    59  51  75 S8        29.93R
$$

*** WEATHER ACROSS MANITOBA...SASKATCHEWAN AND ONTARIO ***
                ***ONTARIO***

CITY           SKY/WX    TMP DP  RH WIND       PRES   REMARKS
GERALDTON      CLOUDY    59  57  94 NE6       29.89  FOG
THUNDER BAY    CLOUDY    64  63  94 NE2       29.85R
SIOUX LOOKOUT  MOSUNNY   61  61 100 CALM      29.90R
TORONTO        LGT RAIN  64  61  88 SE5       29.89R
BIG TROUT LK   SUNNY     66  57  72 SE3       29.91R
PICKLE LAKE    MOSUNNY   55  55 100 E2        29.92R
DRYDEN         MOSUNNY   61  61 100 S3        29.90S
KENORA         MOSUNNY   63  61  94 SE3       29.89R
$$
                *** MANITOBA***

CITY           SKY/WX    TMP DP  RH WIND       PRES   REMARKS
BRANDON        CLOUDY    64  63  94 E8        29.72F FOG
DAUPHIN        MOSUNNY   63  61  94 SE9       29.65F
ISLAND LAKE    MOSUNNY   68  61  77 S3        29.84R
PILOT MOUND      N/A     64  63  94 SE8         N/A
THE PAS        PTSUNNY   66  63  88 SE8       29.66R SMOKE
THOMPSON       CLOUDY    64  64 100 CALM      29.72R
WINNIPEG       MOSUNNY   66  61  82 SE7       29.79S
LYNN LAKE      LGT RAIN  54  52  94 MISG      29.76R
CHURCHILL      LGT RAIN  46  46 100 SE12      29.82R
GILLAM         PTSUNNY   63  61  94 SE6       29.76R
$$
                ***SASKATCHEWAN***

CITY           SKY/WX    TMP DP  RH WIND       PRES   REMARKS
ESTEVAN        TSTM      64  63  94 N7        29.66  FOG
KINDERSLEY     MOCLDY    61  59  94 NW6       29.72R
LLOYDMINSTER   MOCLDY    54  52  94 NW9       29.73R
PRINCE ALBERT  LGT RAIN  63  61  94 E5        29.61S
REGINA         MOCLDY    63  59  88 E5        29.62S


USA.gov is the U.S. government's official web portal to all federal, state and local government web resources and services.